Regional Weather Roundup
Issued by NWS

Home | Current Version | Previous Version | Graphics & Text | Print | Product List | Glossary On
Versions: 1 2 3 4 5 6 7 8 9 10 11 12 13 14 15 16 17 18 19 20 21 22 23 24 25 26 27 28 29 30 31 32 33 34 35 36 37 38 39 40 41 42 43 44 45 46 47 48 49 50
179
ASUS45 KABQ 230401
RWRNM
NEW MEXICO REGIONAL WEATHER ROUNDUP
NATIONAL WEATHER SERVICE ALBUQUERQUE NM
1000 PM MDT WED MAR 22 2017

NOTE: "FAIR" MEANS FEW OR NO CLOUDS BELOW 12,000 FEET AGL WITH NO
       SIGNIFICANT WEATHER OR OBSTRUCTIONS TO VISION.

      THIS PRODUCT IS RELEASED AS TWO VERSIONS.  ONE VERSION NEAR
      THE TOP OF THE HOUR CONTAINING PRELIMINARY DATA FROM ALBUQUERQUE
      AND OTHER STATIONS.  A FINAL VERSION WITH ADDITIONAL DATA IS
      ISSUED ABOUT 10 MINUTES AFTER THE HOUR.

NMZ501-503-504-510>518-230500-
NORTHWEST PLATEAU/NORTHCENTRAL MOUNTAINS

CITY           SKY/WX    TMP DP  RH WIND       PRES   REMARKS
FARMINGTON     FAIR      59  17  19 S7        29.87F
LOS ALAMOS     FAIR      63  11  13 S13       30.02R
SANTA FE       FAIR      67  14  13 S12G24    29.98R
TAOS             N/A     57  14  18 S16       30.00F
ANGEL FIRE     MOCLDY    53  30  41 S12       30.10F

$$
NMZ402-403-502-505>509-230500-
WESTCENTRAL MOUNTAINS/SOUTHWEST MOUNTAINS

CITY           SKY/WX    TMP DP  RH WIND       PRES   REMARKS
GALLUP         FAIR      57  18  21 SW8       29.96S
GRANTS         FAIR      49  17  28 CALM      30.00R
SILVER CITY    FAIR      55  19  24 W5        30.01S

$$
NMZ407-409-411-412-230500-
SOUTHERN DESERTS

CITY           SKY/WX    TMP DP  RH WIND       PRES   REMARKS
DEMING         FAIR      70  17  13 W9        29.95R
LAS CRUCES     FAIR      69  14  12 W14       29.95S
HOLLOMAN AFB   FAIR      68  10  10 CALM      29.95S
ALAMOGORDO     FAIR      64  18  16 S7        29.94R
T OR C         FAIR      72  14  11 W13       29.93R

$$
NMZ519>523-230500-
CENTRAL VALLEYS/CENTRAL HIGHLANDS

CITY           SKY/WX    TMP DP  RH WIND       PRES   REMARKS
ALBUQUERQUE    FAIR      67  15  13 S10       29.94R
DOUBLE EAGLE     N/A     54  16  22 SW10      29.97R
MORIARTY ARPT  FAIR      60  13  15 S10       30.01F
CLINES CORNERS FAIR      58  12  16 S16       30.07S
BELEN          FAIR      64  16  16 S9        29.93S
SOCORRO        FAIR      68  17  14 S8        29.92S

$$
NMZ524>526-539-540-230500-
SOUTHCENTRAL MOUNTAINS

CITY           SKY/WX    TMP DP  RH WIND       PRES   REMARKS
RUIDOSO        NOT AVBL

$$
NMZ527>531-230500-
NORTHEAST HIGHLANDS/NORTHEAST PLAINS

CITY           SKY/WX    TMP DP  RH WIND       PRES   REMARKS
LAS VEGAS      FAIR      60  36  40 S20       30.04S
RATON          FAIR      51  37  58 SW9       30.00R
CLAYTON        FAIR      57  48  72 S17       29.97F

$$
NMZ532>537-230500-
EASTCENTRAL PLAINS

CITY           SKY/WX    TMP DP  RH WIND       PRES   REMARKS
SANTA ROSA     FAIR      65  45  47 SE12      29.95S
TUCUMCARI      FAIR      66  49  54 SE8       29.93R
CANNON AFB     FAIR      63  60  91 SE13      29.97S
CLOVIS AIRPORT FAIR      63  50  63 SE13      29.97F

$$
NMZ028-029-538-230500-
SOUTHEAST PLAINS

CITY           SKY/WX    TMP DP  RH WIND       PRES   REMARKS
ROSWELL        FAIR      71  42  35 S9          N/A
ARTESIA        FAIR      73  45  35 S12       29.91R
CARLSBAD       FAIR      75  52  44 SE15G24   29.88R
HOBBS          FAIR      70  39  32 S10       29.95S


$$




USA.gov is the U.S. government's official web portal to all federal, state and local government web resources and services.